Theta_e
333 334 335 332 333 333 330 331 330 330 330 329 331 331 330 330 328 329 329 330 331 330 330 330 330 329 329 331 331 332 332 334 333 332 330 325 321 320 318 318 318 317 319 323 328 329 328 326 325 324 323 322 323 323 324 325 326 324 323 323 318 315 315 314 313 312 310 308 307 308 310 311 311 310 311 313 313 313 313 313 316 318 318 317 317
333 334 334 333 335 334 332 332 332 332 332 331 331 332 331 331 331 331 331 332 332 331 330 329 328 328 328 329 329 331 332 333 333 333 331 327 322 322 320 320 319 318 318 319 324 327 327 327 325 324 322 320 320 322 323 323 326 325 324 326 322 317 316 314 314 313 312 311 308 307 308 310 309 308 309 310 310 311 311 311 312 315 316 316 316
332 333 331 333 335 335 335 335 334 335 334 333 332 331 332 332 332 332 332 332 332 330 330 329 327 328 327 327 327 329 331 333 333 333 333 329 324 324 323 323 322 320 319 319 323 325 327 327 324 323 323 320 318 321 323 321 323 326 325 326 324 320 317 315 314 314 314 312 310 309 307 307 307 307 307 308 310 310 311 311 312 313 314 313 315
331 333 332 334 336 335 335 336 336 335 335 334 333 331 332 333 332 333 333 333 332 331 330 330 328 328 327 327 327 329 330 331 332 332 333 331 326 325 325 326 325 323 321 321 323 325 326 326 325 325 324 321 318 319 323 322 322 325 327 326 323 321 318 315 313 313 314 314 313 311 308 307 307 307 307 308 309 309 310 313 314 315 315 315 314
333 333 333 335 337 337 336 335 335 335 334 333 332 331 332 333 333 333 333 333 332 331 331 330 330 330 328 327 328 329 329 330 330 331 333 332 329 327 326 327 326 325 323 322 323 325 326 326 326 326 326 325 321 320 321 323 323 324 326 326 321 319 319 316 313 312 314 314 314 313 311 309 308 307 307 307 307 308 309 311 314 315 316 316 315
334 332 332 334 334 334 335 333 332 333 332 331 330 331 332 333 332 331 332 332 332 331 331 330 330 330 329 328 328 329 330 329 329 330 332 333 332 329 327 327 327 326 325 324 324 325 325 325 327 327 327 327 326 324 322 322 324 324 326 326 322 319 319 318 315 312 313 315 315 314 314 312 310 309 308 307 307 308 309 310 312 314 315 315 315
334 331 332 334 332 331 332 331 330 331 330 330 330 331 331 331 331 330 331 331 331 330 330 330 330 330 329 329 329 329 329 330 329 329 329 331 332 331 329 329 328 327 326 326 325 325 325 325 326 327 327 328 328 328 327 325 325 324 325 326 324 320 319 319 319 316 313 314 315 315 317 317 316 313 310 308 307 307 308 309 311 312 312 314 315
332 331 332 334 332 331 332 331 330 330 330 331 331 332 330 330 330 329 330 330 329 329 329 329 329 329 329 329 329 329 329 329 328 328 328 328 329 330 331 330 330 329 327 326 326 326 327 326 326 327 327 327 328 329 331 329 327 325 325 325 325 323 320 320 321 321 317 317 317 317 318 320 319 317 312 309 309 309 309 309 310 311 310 310 312
327 328 333 333 332 333 333 333 332 330 332 332 331 331 330 329 328 327 328 328 329 328 328 328 329 328 328 327 327 327 327 327 326 327 327 327 327 328 329 330 331 331 329 328 327 327 327 327 327 328 328 327 327 328 330 331 330 327 326 326 326 325 323 320 319 322 322 321 320 319 319 320 319 319 316 312 310 310 310 310 310 309 309 309 310
325 327 333 332 332 333 333 333 332 331 332 332 331 330 329 328 328 326 325 325 326 326 326 326 326 326 326 324 324 325 325 325 324 324 326 326 326 326 327 328 329 330 330 329 329 328 328 328 328 328 329 328 328 327 328 330 331 329 327 327 328 327 325 320 317 319 323 324 323 321 320 320 318 318 318 315 313 311 310 311 310 307 308 309 309
326 328 332 332 331 332 332 333 332 332 332 332 332 331 329 329 327 326 325 324 323 323 324 324 324 325 325 325 325 326 326 325 324 323 323 325 325 325 325 326 327 327 329 329 329 329 329 329 328 329 329 328 328 328 328 327 329 330 328 328 329 329 328 325 320 319 320 323 324 324 322 321 320 319 318 317 315 315 313 312 310 307 306 307 309
330 330 331 330 330 330 332 332 332 332 332 331 332 331 330 329 328 327 326 325 325 324 325 327 328 329 329 329 330 329 328 326 324 323 322 322 324 324 324 326 327 327 328 330 329 330 331 330 329 329 329 329 329 329 328 327 328 329 328 329 330 331 329 327 325 323 320 320 322 324 323 323 322 321 320 320 319 318 317 314 312 310 307 306 308
331 331 331 331 332 332 332 331 332 332 331 331 332 332 331 330 328 327 326 326 325 327 329 330 331 331 331 332 332 330 328 326 323 321 321 320 321 322 323 324 326 328 329 330 330 330 332 332 331 330 330 330 330 329 329 328 328 327 327 328 330 331 331 328 326 327 325 323 322 322 322 321 322 321 322 322 323 322 320 318 316 314 311 307 306
329 329 329 331 332 332 331 329 330 331 331 331 331 330 330 329 329 328 327 327 328 329 330 331 331 331 331 331 333 330 327 326 324 322 320 320 320 320 322 323 325 328 330 330 330 330 331 331 331 331 331 331 331 330 330 329 329 328 327 327 328 330 333 331 328 327 327 327 326 324 323 321 320 320 321 322 323 324 323 322 320 318 316 312 308
326 326 326 328 328 329 329 328 329 329 330 330 330 329 328 328 328 327 327 328 329 329 329 330 330 329 329 331 332 331 330 328 325 323 320 320 321 321 321 322 323 325 328 329 328 329 329 330 330 330 331 332 332 332 331 330 330 329 328 327 327 328 331 333 333 330 328 328 328 327 326 324 322 319 319 321 322 323 323 323 322 321 319 317 313
323 325 325 325 326 326 326 328 328 328 329 329 329 328 327 327 326 327 328 327 327 328 329 329 329 329 330 330 329 331 336 331 326 325 321 320 321 321 321 321 322 323 325 326 324 325 326 327 329 330 330 331 331 331 331 331 331 330 330 329 327 327 328 331 333 333 333 331 330 328 328 327 326 323 320 320 321 321 321 321 321 321 322 320 318
320 321 322 323 326 327 326 327 328 328 329 328 328 327 327 326 326 326 327 326 327 329 329 329 328 329 329 330 330 333 335 329 327 327 323 320 319 318 319 318 319 320 322 323 321 322 323 323 325 327 329 330 330 330 329 330 331 331 331 330 329 328 327 328 330 332 334 334 333 331 330 328 328 327 324 321 322 322 322 321 321 321 322 322 321
320 320 321 322 325 327 326 327 328 328 328 328 328 327 327 327 326 326 326 327 328 329 329 328 328 329 328 330 330 332 331 328 329 330 325 323 321 320 320 319 319 320 321 322 322 322 322 322 322 323 327 330 330 330 330 330 331 331 330 330 330 330 329 328 328 328 331 333 334 333 332 330 329 328 327 325 324 324 325 324 323 322 323 323 323
319 319 320 319 320 322 323 324 326 327 326 327 327 327 327 327 327 327 328 329 328 328 330 329 328 328 328 328 327 328 329 327 329 330 328 327 325 323 323 323 324 324 323 323 323 324 323 324 324 322 325 326 326 328 330 331 332 332 332 330 329 330 330 329 329 328 328 330 332 333 333 332 331 329 329 328 327 327 327 326 325 325 325 325 325
318 318 318 318 317 319 320 321 323 324 324 325 325 326 327 327 327 327 328 329 328 328 330 330 330 328 328 328 327 327 328 327 328 328 328 328 327 325 320 318 321 321 320 321 322 323 322 323 323 321 321 322 322 325 327 329 331 332 333 332 330 330 330 330 330 330 329 329 330 330 332 333 333 332 331 330 330 330 329 329 328 327 327 327 327
317 316 316 317 318 319 320 320 322 322 322 322 322 323 323 324 325 325 327 328 327 328 328 329 328 327 327 327 326 326 325 324 323 324 326 327 328 327 318 314 317 317 317 317 318 320 319 319 321 319 320 320 320 321 321 323 327 329 330 331 331 331 330 331 331 331 331 331 331 329 330 333 333 333 333 332 332 332 331 331 330 330 329 329 328
316 315 314 315 315 316 316 317 319 320 321 320 320 320 320 320 321 323 325 325 322 322 323 325 326 326 326 324 324 323 318 315 314 316 320 321 324 322 315 313 316 315 315 316 317 318 319 318 319 319 321 322 318 317 319 322 325 326 326 327 330 332 332 331 331 331 331 332 332 331 330 331 332 332 332 333 332 332 332 332 331 331 331 330 330
314 314 313 312 312 312 310 310 312 316 317 318 318 318 318 317 318 319 321 319 317 316 317 320 322 322 321 320 320 317 312 311 312 311 312 313 318 317 311 312 314 313 314 316 317 317 318 318 320 320 321 322 321 319 322 325 326 326 327 327 328 331 331 332 332 331 331 331 331 332 331 330 330 331 331 332 332 332 333 332 332 332 331 331 331
313 312 313 313 312 310 310 309 310 311 312 313 314 315 315 313 313 315 316 315 314 314 314 315 316 316 315 314 313 311 310 311 311 311 310 311 313 313 310 311 314 312 312 315 317 316 316 315 316 317 317 318 322 323 325 326 325 326 329 329 328 329 330 332 332 331 332 332 330 331 331 331 331 331 331 331 331 332 333 332 332 333 332 332 331
311 311 311 311 311 310 310 312 312 311 310 311 311 310 308 305 305 307 309 310 311 310 310 310 311 312 311 311 310 309 309 310 310 310 311 311 311 310 310 311 312 312 311 313 315 315 314 313 314 314 313 314 316 319 321 323 325 327 329 328 328 329 330 330 330 330 330 330 328 329 330 330 331 331 330 330 330 331 332 333 333 333 333 332 332
309 308 309 310 310 310 312 312 311 311 310 310 309 306 303 302 301 301 303 304 305 305 307 308 309 308 308 307 307 308 308 309 309 310 310 310 310 310 311 310 310 310 309 311 312 313 312 312 313 313 312 312 312 313 315 317 320 323 324 324 324 326 327 327 328 328 328 327 326 326 327 327 327 327 327 327 328 329 330 331 331 331 332 332 331
308 308 308 309 309 310 312 312 311 311 311 310 308 306 304 303 302 301 301 301 300 301 304 306 307 307 306 304 303 304 306 306 306 306 308 309 310 309 310 312 314 312 309 309 309 310 309 308 311 312 310 309 309 310 312 314 315 315 316 317 318 319 321 321 323 324 324 325 326 326 326 325 325 325 325 325 326 326 327 328 328 329 330 331 331
309 310 311 311 309 309 309 310 311 312 312 312 310 309 306 304 303 304 304 303 302 301 302 304 306 307 306 305 303 302 303 303 301 301 304 308 309 309 308 310 314 315 314 315 313 310 308 306 307 308 306 306 306 307 308 311 312 312 312 312 313 314 315 316 317 318 319 321 323 325 325 324 324 324 324 324 324 324 325 326 327 327 328 328 329
311 312 312 312 311 308 307 307 311 313 312 312 311 310 307 305 307 309 309 308 306 304 303 303 304 306 307 307 307 305 304 305 304 302 303 306 307 307 307 307 310 313 315 319 317 311 308 306 306 306 304 305 306 306 307 309 309 310 311 311 312 312 312 313 315 315 317 318 320 323 324 324 323 322 322 322 322 322 322 323 324 325 326 326 328
312 312 313 314 312 310 307 306 308 310 312 311 311 311 308 307 309 311 311 311 309 306 304 304 303 304 306 307 308 306 304 306 307 306 305 306 306 306 306 306 307 309 311 313 315 310 307 307 306 305 305 305 307 308 308 309 309 309 309 310 310 310 310 310 311 312 314 316 318 321 323 324 324 324 323 322 322 322 322 322 322 322 322 323 324
313 313 313 314 313 312 309 306 306 308 311 311 310 310 310 309 309 310 311 310 309 307 306 306 305 303 304 305 307 305 303 304 306 306 306 306 307 306 306 306 307 308 308 308 310 309 307 306 306 306 306 306 306 306 306 306 307 307 307 307 308 308 308 309 309 309 310 311 313 315 318 319 320 321 320 319 318 317 318 320 321 321 321 321 321
314 314 314 314 314 312 311 309 308 308 310 312 311 310 311 311 310 310 311 310 308 308 308 307 306 305 304 305 306 306 304 303 305 306 305 305 305 306 306 307 307 308 308 307 308 307 306 306 306 306 306 306 305 305 305 305 305 306 307 307 307 307 308 308 308 308 308 309 309 310 311 312 313 313 313 313 313 312 312 313 316 319 321 321 320
315 315 315 314 314 313 313 313 312 310 310 311 312 311 311 312 311 310 310 310 309 310 310 309 307 306 306 306 307 307 306 304 304 304 305 305 305 306 306 306 307 307 307 307 307 307 306 305 306 306 305 305 305 305 305 305 305 306 307 307 307 307 307 307 308 308 308 308 308 309 309 309 310 310 310 310 311 311 311 311 312 314 317 320 321
316 316 316 315 315 314 315 314 314 313 312 311 311 311 310 311 311 311 311 310 310 310 311 310 308 307 307 306 306 307 306 306 304 302 304 305 305 306 305 305 306 306 305 305 305 305 305 305 305 305 305 305 305 305 305 305 306 306 306 306 306 306 307 307 307 308 308 308 308 308 308 309 309 309 309 310 310 310 311 311 312 312 313 316 320
316 316 317 316 316 316 316 316 315 315 315 314 313 313 312 310 311 311 311 311 310 310 311 310 309 308 308 306 306 306 306 307 306 304 304 305 306 306 305 305 305 305 305 304 304 304 304 304 304 304 304 304 304 304 304 305 305 305 305 306 307 307 307 307 307 307 308 307 308 308 308 308 309 309 309 310 310 310 310 310 311 312 312 313 315
317 317 317 317 316 317 316 316 317 316 317 316 315 315 315 313 312 312 312 311 311 310 310 310 310 309 309 308 306 306 306 306 306 306 305 305 305 306 305 305 305 304 304 304 303 303 302 303 303 303 303 302 302 303 303 304 304 303 304 305 306 306 307 307 307 307 307 307 307 308 308 308 308 309 309 310 311 311 311 310 310 311 312 313 313
317 317 317 317 317 317 317 316 317 317 317 318 317 317 317 316 315 314 312 311 311 311 310 310 309 309 309 308 307 307 307 306 306 307 305 305 305 306 306 305 304 304 303 303 302 302 301 301 301 301 300 299 300 299 300 300 301 302 302 303 304 305 305 305 306 306 307 307 307 308 308 308 308 308 309 310 311 311 312 311 311 310 311 313 314
318 318 318 318 317 317 318 317 317 318 318 318 318 317 317 317 316 316 314 313 312 312 311 311 310 309 309 309 308 308 308 307 307 307 306 306 305 305 305 305 304 303 302 300 299 298 298 298 298 297 297 297 297 297 297 298 299 300 301 301 302 302 303 304 304 305 306 308 308 308 307 308 308 308 309 309 310 310 312 312 312 312 312 312 314
319 319 319 318 318 318 318 317 317 318 318 318 318 318 318 317 316 315 315 314 313 313 312 312 311 309 309 309 308 308 308 307 307 307 306 305 305 305 305 304 304 302 300 297 295 295 295 296 296 296 296 297 297 297 298 298 298 299 300 300 301 301 301 301 302 303 305 306 307 307 307 307 308 308 307 308 308 308 309 311 312 314 315 315 315
319 319 319 319 319 319 318 318 318 318 318 318 317 317 317 318 317 316 316 315 314 313 313 313 312 310 309 309 308 308 307 307 306 306 306 305 305 305 304 304 302 300 297 294 293 294 295 296 296 297 297 297 297 297 298 298 298 299 300 300 300 300 300 300 300 301 303 304 304 305 305 306 306 306 305 305 305 305 305 307 309 311 314 315 316
318 318 318 317 318 319 318 318 318 317 317 316 314 313 314 316 316 317 316 316 315 314 313 313 312 311 309 309 309 308 307 306 306 306 305 305 304 304 304 303 301 299 297 295 295 296 296 296 297 297 297 297 297 297 297 298 298 299 299 299 299 300 300 300 299 300 301 301 301 302 303 303 303 303 303 302 303 304 304 305 306 307 309 312 314
317 318 317 317 317 318 317 317 317 317 316 315 313 313 313 315 315 315 315 316 316 315 313 313 313 311 310 309 308 307 306 306 306 306 305 304 304 303 303 302 300 299 298 297 297 297 297 297 297 297 298 297 297 297 297 297 298 299 299 298 299 299 299 299 299 300 300 300 299 300 300 300 300 300 301 301 301 303 304 304 304 304 305 306 310
318 320 319 318 317 317 316 316 316 317 316 316 316 316 316 317 317 317 316 317 317 316 315 314 313 311 310 309 308 307 307 307 306 305 304 303 303 302 302 302 301 299 299 299 298 298 297 297 297 297 297 297 297 297 297 297 297 298 298 298 298 298 298 298 298 299 299 299 298 298 298 299 299 299 300 300 301 301 302 303 304 304 303 303 305
317 317 315 314 316 315 316 316 315 316 317 317 317 317 318 318 318 318 318 318 318 318 316 314 312 311 310 309 308 307 307 307 306 304 303 303 303 302 302 302 301 300 300 299 299 298 297 297 297 297 297 297 296 296 297 297 297 297 298 297 298 298 298 297 297 297 298 297 297 297 298 298 299 299 299 300 300 301 301 302 302 303 303 302 303
315 315 315 314 315 316 315 316 316 316 317 318 318 319 319 319 319 319 319 319 319 318 315 313 312 311 310 309 307 306 306 306 305 304 303 303 302 302 302 302 301 300 300 300 299 298 297 297 297 297 296 296 296 296 297 297 297 297 297 297 297 297 297 297 296 297 296 296 296 297 298 298 298 298 298 299 299 300 301 302 301 302 303 303 303
315 315 315 315 315 315 315 315 315 315 315 315 315 315 315 316 317 318 319 319 318 316 315 313 313 312 310 309 307 306 306 306 305 303 303 303 303 302 302 302 301 300 300 300 299 298 297 297 297 296 296 296 296 297 297 297 297 297 296 296 296 296 295 296 296 296 296 296 296 297 297 297 297 298 298 298 299 299 300 300 301 301 302 302 303
314 313 313 313 313 314 315 314 314 313 313 313 312 310 310 313 315 317 318 317 316 314 313 313 312 311 309 308 307 306 306 305 303 303 303 303 303 303 302 302 301 300 300 300 299 298 297 297 296 296 296 296 296 296 296 296 296 295 295 295 294 294 294 294 295 295 295 295 296 296 297 297 297 297 297 297 298 298 299 300 300 301 302 303 304
312 313 312 312 311 312 314 314 314 314 314 313 312 311 311 312 314 315 315 315 314 312 312 312 311 309 308 307 307 306 305 304 303 303 303 302 302 302 302 301 301 300 300 299 298 297 297 296 296 296 296 296 296 296 295 295 295 294 294 293 293 293 293 293 293 293 294 294 295 296 297 296 296 297 297 297 298 298 299 300 301 302 303 304 306
310 310 311 311 311 311 312 314 315 314 314 313 312 312 312 311 311 312 312 312 311 310 309 309 308 307 306 306 305 304 303 303 302 302 302 302 302 302 301 301 300 300 299 298 297 297 297 297 297 296 296 296 295 295 295 294 294 293 292 292 292 292 292 292 292 292 293 293 293 294 295 296 296 297 297 298 298 298 300 302 303 304 305 305 305
308 308 309 310 311 311 312 313 314 314 314 314 313 312 311 310 309 309 309 308 308 306 305 305 305 304 304 304 303 303 303 302 302 302 301 301 301 300 300 299 299 298 297 297 297 296 296 296 296 295 295 295 294 294 293 293 292 292 291 291 291 291 291 291 291 292 292 292 293 294 295 296 296 296 296 297 297 298 300 303 304 304 304 304 303
307 306 307 309 311 312 312 313 313 313 313 313 312 311 311 309 308 308 307 307 306 304 304 304 303 303 303 303 303 303 303 302 301 301 300 300 299 299 298 298 297 297 296 296 295 295 295 294 294 293 293 293 293 292 292 292 291 291 291 291 291 291 291 291 292 292 292 292 293 294 295 295 295 295 296 296 297 297 298 302 303 302 301 301 300
Wind_Speed
13 14 14 11 14 16 14 16 16 16 14 12 12 11 11 12 12 12 11 9 6 5 5 8 9 6 4 7 7 5 5 8 11 10 9 10 10 9 8 6 6 5 5 7 10 9 7 7 8 7 8 10 10 10 10 11 9 7 7 7 7 7 7 6 6 7 6 6 6 6 7 7 8 8 9 9 8 8 8 9 10 10 10 9 10
15 16 16 14 19 18 15 15 14 15 15 12 12 12 11 12 13 13 11 9 8 8 9 10 11 9 8 9 8 6 6 8 10 9 9 10 11 10 9 7 6 5 5 7 8 8 7 6 5 5 6 9 10 10 10 11 11 9 9 8 8 8 8 7 7 7 7 6 6 5 6 6 7 7 8 8 8 8 8 8 9 9 9 9 10
17 17 16 15 20 19 16 15 14 15 16 14 12 11 11 12 13 13 11 9 11 11 10 12 12 10 10 9 7 7 7 8 8 8 9 11 11 11 10 8 7 6 5 6 7 7 7 6 5 4 4 7 9 10 10 10 12 11 10 11 10 9 10 9 8 8 7 7 6 6 6 6 6 6 7 7 7 7 7 8 8 9 9 9 10
15 16 16 15 17 17 16 16 15 15 16 16 13 12 13 14 14 13 12 11 13 12 11 12 12 11 11 9 7 7 8 8 8 8 10 11 11 12 10 9 8 7 6 5 6 7 7 6 5 4 3 5 8 10 11 10 11 12 11 12 12 11 10 10 11 10 8 8 7 7 6 6 6 6 6 6 7 7 7 8 8 8 8 8 10
15 16 16 16 16 16 16 16 16 16 15 15 14 15 14 15 14 13 13 13 13 13 12 11 11 11 11 9 8 7 7 7 6 6 10 12 11 12 12 10 8 7 7 7 7 7 7 7 5 5 4 4 5 8 10 10 11 12 12 12 12 11 10 10 11 11 10 9 8 7 7 6 5 5 5 5 6 6 7 7 7 8 8 8 8
18 17 15 16 16 15 15 15 17 17 15 15 17 17 14 14 14 13 14 15 14 13 12 12 10 10 10 9 8 6 4 5 5 4 7 10 11 12 12 11 9 8 8 8 8 8 7 6 6 6 5 5 5 5 8 9 10 12 12 11 10 10 11 10 11 11 10 9 8 8 7 6 5 5 4 5 4 5 6 6 7 7 8 8 8
17 14 13 15 16 15 14 14 15 16 15 16 18 17 15 14 14 14 15 15 15 13 12 11 10 10 9 8 7 6 4 3 4 4 5 6 8 11 13 12 10 9 10 10 10 10 9 8 7 7 7 7 7 6 7 8 9 11 12 11 10 10 11 10 10 10 9 9 9 8 8 7 6 5 4 4 4 4 5 5 6 6 7 7 7
17 15 14 14 14 14 13 12 14 15 15 16 17 17 16 16 16 16 17 17 16 14 12 12 11 10 9 8 7 6 5 4 4 4 6 6 5 7 10 13 12 11 11 11 11 11 10 10 8 7 7 8 8 9 9 9 9 11 12 12 11 10 10 11 11 9 8 8 9 9 8 7 7 6 5 4 4 4 4 4 4 5 5 6 7
18 19 17 14 14 13 12 11 14 16 16 16 16 16 16 16 16 15 16 16 16 14 13 12 10 10 9 7 6 4 4 3 2 2 3 4 5 4 6 9 12 13 14 14 13 13 12 12 11 10 9 9 9 9 10 10 11 11 12 11 11 10 10 10 11 11 9 7 8 8 7 8 8 7 6 5 4 4 4 4 4 4 4 5 6
16 17 17 16 14 13 13 12 14 17 16 15 16 16 15 15 15 15 14 14 15 15 13 11 9 9 7 5 4 3 2 1 2 2 1 2 3 3 4 5 7 9 11 13 15 16 15 14 14 13 12 11 10 10 11 11 12 12 12 11 10 10 10 9 10 11 11 9 8 8 7 8 8 8 8 7 5 4 4 5 5 4 4 5 6
14 14 17 17 14 14 14 12 14 17 16 14 14 15 15 14 15 15 13 12 12 12 11 9 7 7 7 6 5 4 3 2 3 4 5 4 3 2 3 4 5 5 5 8 12 16 18 18 17 16 15 14 13 12 11 12 12 12 13 12 11 11 10 9 9 10 12 12 10 9 8 7 7 7 8 8 6 5 5 5 5 4 4 5 6
16 15 16 15 14 13 13 12 14 16 15 13 12 12 12 12 12 13 12 11 10 9 8 7 6 5 6 6 6 4 4 3 3 4 5 7 7 5 4 4 5 4 4 5 8 13 17 19 20 19 18 17 16 15 13 13 13 13 13 13 12 12 12 10 9 9 10 11 11 11 10 8 7 7 8 8 7 6 5 5 5 5 5 5 6
17 17 16 14 13 12 10 9 11 13 13 12 10 9 10 9 9 10 11 10 9 8 7 7 7 6 6 6 5 4 4 3 2 3 5 7 9 8 7 5 4 4 3 4 6 7 10 15 19 20 21 20 18 18 16 15 15 14 14 14 12 13 13 12 10 10 9 9 10 11 11 9 8 8 9 9 8 7 6 6 5 5 5 5 6
12 13 12 12 13 12 9 7 8 10 11 11 9 8 8 8 9 10 9 7 8 9 8 8 7 4 4 4 3 3 4 4 3 3 5 6 8 7 7 7 5 3 3 3 6 7 6 10 15 18 21 21 20 20 19 18 17 17 17 16 15 14 15 14 13 12 11 10 9 10 11 10 9 10 10 10 9 8 7 6 6 5 5 5 6
9 8 8 9 9 9 8 6 6 8 10 10 10 8 9 9 9 9 8 7 7 7 8 9 6 3 2 1 0 1 2 3 2 2 3 4 5 6 6 6 6 5 1 2 2 7 6 5 9 12 14 17 19 22 22 20 18 18 18 18 18 17 16 16 16 15 13 12 11 11 12 11 11 11 11 11 11 10 9 8 7 7 6 6 6
10 9 9 9 8 9 9 8 7 7 8 9 10 9 9 10 10 9 9 8 8 6 8 10 8 5 2 1 1 2 1 2 2 1 3 3 3 5 6 6 6 6 6 3 2 2 3 2 5 8 10 14 17 20 22 22 21 20 20 20 20 20 19 18 18 17 17 16 14 14 13 13 13 12 12 12 12 11 11 10 9 8 8 7 7
11 10 10 10 10 9 9 8 7 6 6 6 7 8 8 9 9 10 10 9 9 7 7 10 10 7 2 0 1 1 1 2 4 2 4 4 4 4 5 5 5 5 7 8 5 4 4 5 7 9 10 13 17 19 20 21 22 21 22 22 22 22 21 21 20 19 19 19 18 17 16 16 15 15 15 14 13 13 12 11 11 10 9 9 8
9 11 12 13 11 10 8 8 7 6 5 4 5 5 6 7 7 8 8 7 8 8 7 9 11 8 3 3 3 2 1 1 2 1 5 5 4 4 4 5 5 5 7 8 9 8 8 8 11 13 12 12 15 18 19 21 21 21 22 21 21 22 23 23 22 22 21 20 20 19 19 19 17 17 17 16 15 14 14 13 12 12 11 11 10
9 10 12 14 14 13 11 9 8 7 6 6 6 5 5 6 5 6 7 7 7 7 9 10 9 7 5 2 3 3 3 2 2 0 3 3 5 6 6 7 6 7 8 9 9 10 10 9 11 13 13 10 10 14 18 20 23 25 25 22 20 21 23 24 24 24 23 22 21 20 20 20 19 18 18 18 17 16 15 15 14 13 13 13 12
11 11 11 12 14 15 14 13 12 11 11 11 9 8 7 7 7 7 7 6 5 6 9 10 6 5 4 2 2 2 3 3 2 1 1 1 5 6 8 9 7 7 10 10 10 8 8 8 9 12 12 9 8 10 13 16 19 23 25 25 22 20 21 22 24 24 25 25 24 24 22 21 22 21 21 20 20 19 18 17 17 16 16 15 15
12 13 13 13 14 14 14 15 16 15 15 15 14 12 11 10 9 8 10 9 6 6 8 8 5 5 6 5 6 6 6 6 5 3 2 1 3 3 8 11 9 9 11 10 9 8 9 9 10 12 11 8 7 8 10 12 15 16 18 20 20 20 20 19 20 22 23 25 26 27 26 24 24 25 24 23 23 22 22 21 20 19 19 18 17
12 12 14 14 14 12 11 12 13 13 13 13 13 12 12 12 11 10 12 13 12 11 11 9 8 8 8 7 8 8 7 7 8 8 4 1 1 3 6 9 8 10 12 11 9 9 10 10 11 12 12 10 8 7 10 12 13 14 13 13 15 18 19 17 17 19 19 21 23 26 28 28 28 27 26 25 26 26 26 25 23 22 22 21 20
13 13 13 13 12 11 10 11 11 11 11 10 10 10 10 10 11 12 13 13 13 12 12 11 10 10 9 8 8 8 7 7 7 7 6 3 1 3 6 8 6 8 11 12 12 12 12 12 11 10 9 8 7 9 13 13 12 13 13 13 14 17 16 13 12 13 15 18 18 18 22 27 29 30 29 28 26 26 28 28 25 24 23 23 22
14 13 13 12 11 11 12 13 13 12 11 10 10 9 8 8 9 11 11 11 10 9 10 9 8 9 9 8 7 7 7 7 5 5 5 4 3 1 5 8 5 7 11 12 16 19 20 20 19 18 17 15 11 6 10 11 10 11 12 11 11 13 10 6 7 8 10 12 12 11 15 19 24 28 30 30 28 27 29 29 27 25 24 25 24
14 14 13 12 11 12 13 13 13 11 10 10 10 9 9 9 10 10 10 9 7 6 8 8 7 7 8 7 6 6 6 6 5 5 5 4 5 5 5 6 4 6 10 10 10 13 16 18 18 18 19 19 19 15 13 11 8 8 8 6 7 11 10 6 6 7 7 8 8 8 10 13 16 19 21 23 25 27 29 27 26 26 26 26 26
15 15 14 13 12 12 13 13 12 10 10 10 9 9 11 12 12 11 11 9 8 7 8 9 8 7 7 6 5 5 5 5 4 4 5 6 7 7 6 5 4 5 8 9 9 9 12 13 12 14 17 18 18 18 17 16 13 11 9 7 7 8 9 7 6 7 8 9 9 9 9 10 12 13 13 14 17 21 24 24 24 26 26 27 28
17 15 14 14 13 12 13 13 12 10 9 10 9 9 9 11 12 12 12 10 9 9 8 8 8 8 7 6 6 5 3 4 3 3 4 6 7 8 8 6 4 5 6 7 8 9 13 15 9 11 18 20 19 18 16 15 13 12 11 10 9 9 8 8 7 7 7 7 9 9 10 10 10 10 11 11 13 15 18 19 21 22 23 25 27
18 17 16 14 13 12 13 13 12 10 9 9 9 8 8 9 10 10 10 9 9 9 8 7 7 7 8 7 7 7 6 6 6 5 4 4 5 6 9 8 4 3 4 6 6 4 12 18 11 11 20 23 21 19 17 14 13 13 13 11 11 10 9 8 8 8 7 6 6 8 9 9 9 9 9 10 11 12 14 15 17 19 20 22 25
19 18 17 14 12 11 12 13 13 11 10 9 8 7 6 7 7 7 7 7 6 7 7 7 6 6 6 6 7 8 8 8 9 9 7 5 5 5 7 7 5 3 1 4 4 3 8 17 14 14 23 24 21 20 17 15 14 13 13 13 12 12 12 11 10 10 9 7 6 6 8 10 10 10 11 11 12 13 13 13 15 16 18 19 21
21 20 18 15 13 11 11 12 13 12 11 9 7 5 5 5 5 4 4 4 3 4 5 5 5 4 4 4 4 6 6 7 8 8 8 7 7 8 7 6 6 4 2 2 4 3 8 16 17 18 24 24 20 19 18 17 16 15 15 14 14 14 14 13 12 12 11 10 8 7 8 10 11 11 13 14 15 16 16 16 16 16 16 17 18
22 21 20 17 14 12 11 11 12 12 11 9 7 5 4 4 4 3 2 2 0 1 2 2 3 3 2 2 2 4 5 4 5 5 6 6 7 8 7 7 7 6 4 3 2 4 10 16 19 21 22 22 21 20 20 20 18 18 17 16 15 14 14 14 13 13 12 11 10 9 9 9 11 12 13 15 16 17 18 18 19 18 17 17 18
24 22 21 18 16 14 12 12 11 12 11 9 7 6 5 4 3 3 3 3 3 2 1 1 1 0 1 1 2 4 4 3 3 2 3 5 7 8 8 8 7 7 9 6 4 9 15 16 18 21 21 21 22 22 23 22 20 19 19 18 17 16 15 15 14 14 13 12 12 11 11 11 11 12 14 15 16 17 18 18 19 19 19 18 18
25 23 21 19 17 14 13 12 11 11 11 10 9 7 7 7 6 5 6 5 5 5 5 4 4 3 2 1 1 1 2 3 3 2 3 5 5 6 7 6 6 6 9 9 7 11 17 17 17 19 20 21 22 22 23 24 23 22 21 20 19 18 17 17 16 15 15 14 14 13 13 13 13 14 15 16 18 19 19 19 19 19 20 20 19
25 23 22 20 17 14 13 12 10 10 10 9 9 8 8 9 8 8 8 8 8 8 8 8 7 6 5 4 4 3 3 3 3 3 3 3 4 5 6 5 4 5 6 8 8 9 15 19 20 20 20 21 22 22 22 23 24 23 22 21 20 20 19 18 17 17 17 17 16 15 15 15 14 15 16 17 18 19 20 20 20 19 19 20 21
27 24 21 20 18 15 13 12 10 9 9 9 9 8 8 9 10 11 11 11 10 10 11 11 10 9 8 7 6 5 6 5 4 4 3 2 4 5 5 4 4 5 6 8 9 9 12 17 20 21 21 22 22 21 21 21 22 22 22 21 21 20 19 18 18 18 17 17 17 16 16 15 15 16 17 17 18 18 19 20 20 21 20 20 21
28 25 23 20 18 16 14 13 12 11 10 10 10 9 9 10 11 12 13 13 13 13 14 13 13 13 12 10 8 8 8 7 6 5 4 4 5 5 5 6 6 7 8 9 10 10 11 15 19 21 21 21 21 21 21 21 22 22 21 21 21 20 19 19 18 19 19 18 18 17 16 16 17 18 18 18 18 19 19 19 19 20 20 21 21
30 27 24 22 19 18 16 15 14 14 13 13 13 13 13 12 12 13 14 15 15 16 16 16 15 15 15 13 11 11 10 8 7 7 6 5 6 6 6 8 8 9 10 11 11 12 13 15 19 20 21 22 22 21 21 23 24 24 23 21 20 20 21 20 19 20 21 19 18 17 17 18 19 19 19 18 18 20 20 20 20 20 19 19 19
23 25 24 23 21 19 17 16 16 16 16 16 16 17 18 17 17 16 16 17 18 18 18 18 17 17 17 15 13 13 12 10 8 8 8 7 7 8 8 9 10 12 13 14 14 14 15 16 17 20 21 21 21 22 22 22 23 23 25 25 23 23 24 24 22 22 21 18 17 17 18 19 19 20 19 18 17 19 21 20 19 19 20 20 20
15 18 17 18 19 19 19 18 17 17 17 17 17 17 19 20 20 20 20 20 20 21 21 21 20 19 18 17 15 15 15 12 11 10 10 9 9 9 10 10 12 13 15 16 16 15 16 16 16 18 20 20 20 21 22 22 21 22 25 28 27 28 28 28 26 25 22 19 19 19 19 19 19 19 20 19 19 20 22 20 18 17 16 17 19
17 15 13 14 17 19 19 19 19 19 19 19 18 18 18 19 20 20 22 24 25 25 24 24 23 21 20 19 17 17 16 14 13 12 11 11 10 9 9 10 12 14 16 16 15 14 14 15 15 16 18 20 21 23 25 25 24 23 25 25 26 28 30 30 28 24 22 22 23 22 21 21 21 22 23 24 24 24 24 23 21 18 16 15 15
20 20 19 17 18 20 20 20 21 19 19 19 20 18 18 19 20 21 22 24 27 29 28 27 25 23 22 20 19 19 18 16 14 13 12 11 10 9 9 10 11 13 13 12 11 11 13 15 16 17 19 21 22 24 25 25 24 23 24 25 26 27 29 31 29 24 21 24 27 27 25 25 26 27 28 29 29 26 26 26 25 22 19 16 16
17 20 22 20 19 20 19 19 19 19 19 20 19 18 19 21 22 23 24 24 27 30 31 30 28 26 24 22 21 20 19 17 15 14 13 11 10 10 9 10 11 11 9 8 7 8 10 13 14 15 18 20 22 23 23 24 24 24 25 26 26 27 28 28 29 27 24 25 30 33 31 30 30 30 30 31 30 27 25 26 25 25 22 19 17
15 16 18 18 17 15 13 13 14 15 16 16 17 19 20 22 22 24 25 25 26 30 33 33 31 28 25 24 23 22 21 18 16 14 12 11 10 10 10 11 11 10 8 6 6 6 8 9 11 13 14 17 21 22 22 23 24 25 26 26 25 24 23 20 22 25 26 28 31 34 34 31 29 28 28 29 29 27 25 24 24 23 23 21 18
11 11 11 11 10 10 10 11 12 12 13 14 16 18 19 20 21 22 24 26 28 30 33 34 31 28 27 27 25 23 21 18 16 14 12 11 11 11 12 12 11 10 9 8 7 7 8 9 11 13 14 16 19 21 21 22 24 25 26 26 24 24 22 19 19 23 28 31 33 33 33 30 26 25 26 26 26 25 24 24 23 23 23 21 18
8 8 9 8 8 8 8 8 8 8 9 12 14 15 16 16 17 18 20 24 28 31 32 32 30 28 29 28 25 23 20 16 15 13 12 13 13 13 13 13 11 10 10 10 10 9 9 10 12 14 15 16 18 19 20 20 21 23 24 25 25 24 24 23 24 27 31 33 32 30 30 29 26 24 25 25 23 22 23 24 24 23 22 20 17
5 5 4 4 4 5 5 5 5 6 7 9 11 13 14 15 15 16 17 19 23 28 31 32 30 29 30 29 26 24 20 17 15 13 13 13 13 14 14 13 12 11 11 11 11 11 11 12 14 16 16 16 17 19 19 17 17 18 20 22 23 24 26 27 29 31 32 29 26 25 24 24 24 24 24 25 23 22 23 23 23 23 22 20 17
4 3 3 1 1 3 5 5 5 5 6 8 10 12 14 13 13 12 13 14 18 23 24 25 26 26 27 27 22 17 14 14 14 12 12 13 13 14 14 13 13 13 12 12 12 12 12 12 13 15 16 16 17 17 17 16 16 16 18 20 22 25 28 30 32 33 31 26 22 20 19 20 22 24 26 27 25 23 22 22 21 21 20 18 15
2 2 2 2 2 3 4 5 6 6 6 8 11 12 12 11 9 7 9 12 15 16 16 17 18 20 20 19 15 10 10 13 12 11 11 12 12 14 15 15 15 14 13 12 12 12 12 13 13 14 15 16 16 17 17 18 19 20 23 25 26 27 27 27 28 30 30 27 21 18 20 23 24 25 26 24 21 20 20 18 17 16 15 13 11
3 4 4 5 6 5 6 7 7 7 7 7 9 10 9 7 5 3 5 8 9 10 10 11 13 15 13 11 10 9 10 11 11 10 10 11 13 15 15 15 15 13 12 12 12 12 11 12 12 13 15 17 19 21 22 24 25 26 27 27 26 25 24 21 21 24 28 28 24 21 24 24 21 21 22 19 16 15 15 12 10 8 8 8 8
3 4 6 6 7 8 8 8 8 7 7 6 6 6 5 4 2 3 6 8 9 11 11 12 12 13 11 8 8 10 10 9 9 9 9 10 12 12 12 12 11 10 10 11 12 13 14 15 17 18 20 22 24 26 27 27 27 26 25 24 24 23 22 19 19 22 25 25 23 21 21 19 16 18 21 20 16 14 12 8 5 5 6 7 8
5 6 7 7 8 9 9 9 9 8 7 6 5 5 4 3 4 5 6 8 10 10 10 10 10 11 10 10 9 10 10 9 8 9 9 9 9 9 8 8 9 10 11 13 15 16 18 19 20 21 21 21 21 22 21 20 19 18 18 20 21 22 23 22 21 19 16 14 14 15 17 19 18 18 20 17 12 9 10 7 5 7 9 10 12
Wind_Direction
203 211 223 212 205 210 207 206 202 198 197 193 198 200 191 179 174 174 173 178 182 186 182 165 157 149 151 159 158 169 176 174 177 182 171 154 144 145 148 147 155 168 165 165 175 186 190 182 181 188 191 186 180 177 173 166 171 179 174 173 168 156 143 135 131 126 123 119 116 114 115 115 115 115 114 115 115 110 109 112 111 108 107 103 100
206 208 218 210 202 206 209 207 204 202 204 205 204 205 197 184 182 182 179 182 180 172 166 158 158 159 150 143 144 156 171 177 178 182 180 167 154 150 149 147 144 147 147 149 165 178 185 192 194 191 191 194 190 185 184 174 172 180 180 189 194 181 167 154 146 139 134 131 126 122 120 119 117 115 115 117 117 114 114 117 116 114 115 114 109
210 208 216 214 200 198 204 207 207 204 209 217 216 212 209 204 200 192 191 194 185 179 175 172 171 171 168 157 141 141 154 169 176 182 186 180 169 160 156 157 154 148 151 154 163 168 176 195 203 196 186 192 194 189 192 186 178 178 184 198 205 195 185 172 163 153 146 142 136 132 128 125 122 119 119 120 119 117 118 119 116 112 112 112 111
207 207 217 221 202 192 198 203 206 204 208 220 220 210 211 215 211 202 206 206 194 188 185 180 174 172 173 166 145 131 137 152 170 187 193 191 182 176 168 166 166 163 168 169 172 175 183 196 195 200 195 186 191 191 196 194 184 180 188 207 211 205 198 186 177 168 158 153 147 144 140 136 131 126 124 123 124 124 123 123 123 119 116 113 115
208 210 215 213 199 192 197 198 204 206 209 214 206 200 206 209 207 206 210 207 198 192 190 184 176 176 177 174 158 133 124 133 146 178 199 201 196 192 186 181 179 174 181 183 184 184 192 202 196 201 206 189 188 187 194 198 193 187 191 211 218 211 207 197 188 181 170 161 156 154 151 147 142 139 134 130 128 130 129 129 130 129 128 126 123
212 214 215 205 192 188 188 188 195 198 201 202 194 194 200 197 194 197 198 197 196 193 194 190 182 182 180 181 176 158 142 133 125 135 186 205 210 207 200 197 197 195 196 195 197 196 197 206 207 213 212 205 206 192 194 199 200 196 192 207 223 217 211 203 195 189 182 173 168 162 161 159 155 153 145 140 135 134 135 133 136 137 138 138 134
205 211 219 209 194 185 178 181 188 186 190 197 194 193 193 187 185 185 182 182 185 186 191 194 192 191 184 181 180 171 164 149 142 134 147 182 209 219 219 216 214 214 214 210 209 206 206 210 212 222 221 215 217 208 207 209 204 202 198 203 217 219 212 205 201 201 195 188 184 175 171 172 169 168 162 156 152 146 144 141 143 146 146 147 145
195 198 209 211 199 187 180 185 190 185 187 192 192 191 190 186 183 182 180 177 181 183 187 192 194 190 179 171 169 166 160 143 142 147 148 162 181 208 224 228 230 232 229 225 223 217 215 217 218 224 225 223 222 214 215 222 215 209 208 206 206 209 213 210 206 208 210 198 194 192 186 184 182 178 175 172 168 163 161 158 156 157 156 156 154
191 188 195 209 207 194 189 193 193 192 191 190 189 189 191 191 184 185 188 184 184 187 186 186 187 183 174 164 159 157 160 157 151 137 140 156 169 188 211 222 231 239 241 239 238 234 227 223 224 226 227 228 227 220 215 220 222 218 216 211 205 205 210 213 210 208 213 210 203 205 202 196 194 189 182 180 177 179 180 176 172 172 173 169 164
184 184 193 208 212 201 198 197 195 198 198 194 190 189 193 197 192 190 196 197 196 197 195 193 194 196 199 201 203 201 195 227 264 268 245 163 160 182 193 205 217 228 240 244 244 244 239 233 228 227 230 232 232 229 221 220 222 223 222 216 213 217 216 214 213 206 204 211 214 215 213 202 200 198 189 183 178 183 190 188 189 189 189 185 177
168 179 192 202 205 200 200 197 196 200 202 200 194 191 193 199 202 200 198 201 204 204 199 197 196 204 216 220 219 222 231 260 285 286 271 252 225 198 184 190 202 215 239 249 245 241 240 238 232 228 230 232 235 236 231 227 226 228 228 222 220 228 229 220 212 207 201 205 213 220 223 213 208 206 192 185 181 184 191 194 199 198 197 200 196
164 175 188 196 198 197 195 190 194 203 208 208 200 196 198 196 202 204 196 189 189 194 197 193 180 175 192 201 204 220 243 262 276 280 269 256 246 237 213 179 180 205 232 251 249 239 236 238 236 233 233 233 235 239 240 237 234 235 234 229 227 231 237 229 213 207 202 202 208 218 227 225 217 206 189 184 182 184 193 198 203 204 204 208 207
167 174 182 188 190 189 188 185 195 206 213 219 213 208 211 205 202 200 191 185 183 189 201 201 188 169 160 170 189 214 237 259 270 266 263 257 250 244 236 210 171 161 184 223 241 238 240 243 240 238 236 235 236 238 240 241 239 239 238 235 231 230 237 239 224 211 207 206 208 215 227 229 220 210 199 194 191 192 197 198 204 210 214 216 212
157 164 173 179 179 178 185 194 200 205 211 219 221 218 215 206 200 195 188 191 195 193 195 194 198 192 151 146 181 213 235 243 250 274 277 264 256 254 247 229 209 171 133 179 220 218 231 252 251 247 243 239 240 240 239 241 242 240 239 238 236 231 232 238 236 225 219 218 216 220 230 232 223 215 209 207 207 209 209 204 205 214 220 222 221
152 156 163 171 173 170 178 191 199 206 212 218 221 220 215 203 197 195 193 200 204 203 204 199 195 183 136 96 213 221 262 244 229 280 311 292 262 256 252 238 230 231 203 66 217 221 223 247 257 259 256 252 249 246 242 240 241 243 241 240 239 237 233 234 237 236 231 226 224 227 233 236 230 221 215 214 218 221 222 217 211 214 220 222 224
146 152 158 166 168 163 166 177 190 203 213 220 221 220 218 212 205 201 201 206 209 208 216 217 206 187 179 320 39 60 338 305 329 333 344 331 288 271 266 252 244 252 263 292 351 257 257 296 278 265 260 262 260 256 251 245 242 244 244 243 242 242 240 239 239 240 238 234 233 233 236 240 238 232 224 219 221 225 227 225 220 219 221 224 227
122 126 141 156 164 164 163 170 180 192 205 217 221 222 220 214 210 207 208 212 211 202 207 216 209 199 199 110 62 25 241 324 359 349 352 345 313 302 299 286 273 277 281 280 288 280 267 277 287 285 269 258 256 255 254 250 246 246 245 244 242 242 243 242 241 241 240 240 239 236 236 242 244 242 237 227 223 225 228 228 225 223 223 226 229
114 110 117 130 144 157 163 171 179 181 185 188 190 196 198 200 204 207 213 215 207 198 194 199 203 207 196 124 87 61 156 61 50 328 339 355 357 342 336 333 317 313 314 304 302 296 281 267 269 280 276 259 252 251 250 246 243 247 248 247 243 241 240 241 242 242 240 241 241 240 237 238 242 242 240 234 226 224 227 228 226 224 226 229 231
112 109 112 118 124 130 133 145 162 164 154 146 148 156 163 170 173 184 203 210 205 197 187 181 186 199 202 153 79 67 70 67 96 93 337 343 348 355 358 351 339 340 344 336 324 310 300 284 264 265 268 265 257 253 256 251 245 247 251 251 248 242 238 239 242 244 244 242 240 241 239 235 239 242 238 236 232 228 228 229 228 228 228 231 234
104 105 111 115 113 113 112 115 124 130 128 123 126 140 147 146 141 146 166 183 194 191 182 180 176 176 172 121 72 63 53 53 48 47 98 323 326 347 3 0 1 8 4 355 345 332 321 304 278 268 268 277 272 255 265 268 257 254 255 254 252 246 241 240 244 248 250 249 244 243 240 236 240 244 242 240 239 237 236 235 234 234 235 235 238
105 104 107 111 109 108 107 109 113 118 118 114 114 118 119 123 124 123 125 124 127 139 152 162 161 148 138 118 102 91 80 71 55 53 101 79 316 321 349 355 358 4 4 354 345 341 333 319 300 287 278 289 293 265 274 284 273 269 268 264 257 250 248 248 249 251 254 254 250 247 243 240 241 244 245 244 245 246 245 242 241 240 241 241 241
115 110 109 111 112 111 108 108 112 116 115 112 112 111 107 108 108 111 114 110 110 112 115 123 126 125 127 121 107 96 87 72 58 58 71 64 331 304 338 353 344 345 359 359 348 339 335 331 322 309 297 296 300 287 294 295 285 283 279 269 257 249 249 251 252 253 255 255 251 249 247 244 243 245 248 247 247 251 251 249 247 245 245 245 244
129 123 118 117 117 114 109 108 112 115 116 113 115 117 112 108 107 110 113 112 111 108 105 110 114 116 117 114 107 99 90 76 61 58 63 57 19 308 332 349 334 335 359 19 37 43 41 38 28 9 353 336 311 291 296 302 298 294 284 269 260 254 246 243 253 256 257 259 259 254 250 248 246 247 250 251 250 251 252 252 250 246 244 242 242
135 133 132 129 124 116 111 109 108 108 109 110 114 117 118 115 115 117 116 114 114 110 108 109 115 117 111 106 101 93 84 80 72 64 64 59 52 334 333 350 338 337 360 32 61 64 60 58 59 56 49 43 37 352 314 311 306 299 290 282 285 284 271 258 272 273 266 273 279 267 255 251 249 248 249 253 255 254 252 251 247 245 243 241 240
141 139 141 142 135 126 118 112 106 103 104 105 105 106 108 108 110 116 117 117 115 114 114 113 117 117 108 103 98 91 85 77 74 71 62 46 41 23 349 350 334 332 356 21 53 61 53 50 55 56 50 46 45 39 23 10 358 333 318 323 337 327 321 324 315 302 294 297 299 284 269 264 260 257 253 254 257 256 253 250 246 245 245 244 243
149 145 145 145 141 134 127 121 114 110 109 109 105 102 103 101 100 103 104 106 107 109 114 115 113 109 103 104 99 93 86 71 64 59 47 41 43 31 2 353 344 342 356 6 24 43 36 30 36 38 34 31 30 31 31 31 30 20 13 17 11 347 335 337 327 314 313 312 309 300 292 284 277 274 268 262 262 262 261 259 256 253 249 247 247
154 151 148 147 146 143 140 136 129 123 119 116 110 103 100 96 95 96 93 94 98 103 109 114 111 101 91 88 82 77 64 38 24 21 38 49 49 39 28 26 8 350 350 356 15 31 17 8 4 10 13 10 8 13 17 20 21 15 14 16 10 3 357 348 335 325 320 316 312 304 297 294 292 288 283 276 271 271 272 270 269 267 262 257 256
157 156 154 151 147 146 150 148 142 134 131 130 119 105 100 97 95 94 89 87 89 94 101 102 98 92 86 77 61 54 51 45 40 36 51 59 47 37 35 45 51 1 344 343 356 13 6 3 355 349 0 1 358 360 1 1 1 358 358 359 355 352 351 347 342 334 327 320 310 304 300 300 302 303 301 294 285 283 283 279 276 276 274 271 267
160 160 160 158 152 147 148 150 148 143 136 136 130 116 111 109 105 98 91 88 82 85 91 90 89 89 86 76 51 49 59 60 56 56 59 55 43 31 24 37 53 49 19 342 327 287 349 359 352 342 352 359 1 2 4 2 357 351 348 348 346 343 338 335 334 330 326 318 303 294 292 292 298 305 309 308 303 300 297 291 286 283 281 278 275
162 162 162 162 160 155 149 148 151 153 148 145 143 137 129 124 123 115 101 99 80 76 84 80 84 87 82 80 56 47 55 58 58 60 55 45 33 26 20 22 29 37 60 339 313 293 335 347 346 343 347 354 1 3 4 2 357 351 346 341 337 338 337 334 331 326 323 318 307 295 285 282 287 297 305 307 306 303 299 295 291 288 286 283 280
166 164 165 166 164 162 158 153 154 159 159 158 160 164 159 147 148 155 143 144 130 58 84 64 61 77 90 113 78 47 40 43 55 54 41 27 13 10 10 7 9 8 1 351 312 306 325 333 337 340 343 346 352 354 352 352 353 352 351 347 343 342 343 344 342 336 329 323 316 307 297 290 288 292 297 300 302 303 302 298 293 288 286 283 282
172 168 168 168 166 163 161 159 160 164 167 169 172 179 186 192 199 204 211 219 243 260 244 273 298 311 136 154 97 48 29 15 26 37 17 3 352 350 350 345 350 349 339 334 299 299 317 329 333 336 339 341 344 348 348 348 351 353 353 354 352 350 349 349 349 347 342 336 330 322 313 307 303 301 301 301 302 304 304 303 297 290 285 283 283
179 176 174 172 168 164 162 161 163 166 172 176 181 189 196 208 221 224 230 238 245 249 246 254 266 260 230 215 226 6 359 351 352 332 331 349 356 357 356 347 345 342 331 329 315 306 317 328 331 333 339 341 342 347 349 348 349 351 351 352 352 352 352 351 347 346 344 341 337 333 327 321 315 310 306 304 302 300 301 301 299 294 287 282 282
186 182 179 176 172 167 164 163 163 167 173 181 189 197 204 213 224 228 231 239 246 247 244 249 261 262 258 258 259 263 274 298 329 319 308 337 356 357 2 4 358 356 350 346 340 322 320 326 329 333 338 341 342 345 348 348 348 348 347 348 349 348 347 347 346 343 343 342 340 338 335 332 328 324 318 312 308 302 299 298 297 294 289 283 280
190 189 185 181 176 171 169 169 170 173 177 187 196 205 213 220 226 230 232 236 242 245 244 246 252 256 259 262 263 265 264 263 288 310 301 311 337 341 346 354 353 352 355 351 346 338 325 324 328 332 336 339 341 342 344 343 345 347 346 346 346 346 347 349 348 345 345 348 348 346 344 342 338 335 331 326 322 315 306 300 297 293 289 284 280
192 191 189 186 182 179 179 178 181 186 190 196 206 215 223 228 231 233 236 238 240 243 244 245 246 248 251 253 256 261 264 261 271 293 295 300 317 322 321 324 327 327 329 331 335 338 333 327 327 329 332 334 335 338 339 338 339 343 344 343 344 346 348 352 351 346 344 345 346 346 345 344 340 337 335 334 333 329 319 308 301 296 291 285 280
193 193 191 189 188 186 188 190 194 200 204 207 213 222 228 232 236 238 238 240 243 244 245 245 244 244 245 248 251 251 254 256 263 278 283 284 299 303 302 307 312 317 321 323 327 330 330 330 329 327 328 330 330 332 337 340 340 339 336 336 339 342 342 343 345 345 344 342 341 342 340 338 336 334 335 338 340 339 332 319 308 302 298 292 283
188 190 191 193 194 193 194 198 202 208 213 216 220 226 230 231 235 239 239 240 243 244 246 246 245 243 241 243 246 243 241 243 247 257 263 265 276 285 291 301 308 314 319 321 324 325 326 329 330 328 329 333 335 334 339 344 344 343 341 336 333 336 339 338 339 343 345 342 337 335 335 336 336 334 333 334 338 343 342 335 320 307 301 295 285
178 177 184 192 198 201 202 204 208 211 213 216 220 226 232 232 233 238 241 242 242 242 244 246 245 243 240 239 238 232 230 231 231 236 244 252 262 274 285 297 305 311 316 318 319 322 326 331 335 335 335 339 343 343 343 345 344 347 351 347 338 337 338 337 337 340 339 333 327 322 322 325 328 334 336 332 330 335 339 341 337 329 319 307 292
188 182 189 197 201 206 208 210 213 214 214 222 232 235 235 235 234 237 242 244 243 241 242 243 243 242 238 237 234 226 221 221 223 228 236 244 255 266 278 289 298 307 312 314 317 323 329 334 340 343 341 341 345 346 346 349 348 346 349 349 343 340 338 334 333 337 337 331 327 323 319 318 319 325 333 333 330 331 332 332 333 336 341 337 319
194 195 201 206 207 209 213 215 217 222 231 246 256 252 245 244 245 245 247 247 245 243 240 239 240 238 235 234 229 222 218 217 220 227 234 243 254 260 268 281 296 306 309 311 319 328 334 338 341 344 342 340 343 343 342 345 345 339 338 340 339 339 338 332 329 333 337 333 331 327 323 323 323 322 326 329 331 332 333 331 327 326 331 338 337
205 208 209 215 218 219 223 227 231 241 252 260 265 264 264 266 265 260 257 254 249 244 241 237 235 233 230 228 222 218 217 218 222 229 234 242 252 255 264 280 294 301 302 305 319 332 335 335 336 338 335 331 333 337 335 335 335 333 333 336 336 335 336 333 327 329 334 335 334 330 324 323 325 322 321 324 326 329 333 333 329 324 321 321 326
220 217 214 219 223 226 237 246 254 261 265 267 267 269 272 272 270 267 264 261 255 248 242 237 231 226 222 220 218 217 218 221 225 230 235 241 247 252 265 281 289 292 291 290 299 310 316 316 318 322 321 318 323 329 331 332 332 330 329 330 331 331 334 333 324 321 326 331 332 328 322 322 326 324 321 321 322 324 328 329 326 323 320 315 314
210 213 221 231 237 248 263 270 277 279 276 275 273 275 276 274 271 270 267 265 260 253 244 234 226 221 219 217 216 216 218 221 226 230 234 239 245 255 268 278 283 285 286 283 283 288 293 296 302 307 309 311 318 325 330 331 328 325 323 324 325 326 325 321 313 310 316 323 325 320 316 319 324 324 319 318 319 320 320 319 320 321 319 314 308
217 231 243 253 259 267 273 277 282 283 282 282 283 288 292 291 286 280 273 267 261 253 241 228 221 220 219 216 212 210 209 218 230 234 235 240 245 254 264 271 274 277 279 279 279 281 285 289 294 300 308 312 314 318 324 325 321 319 319 319 319 320 317 312 307 306 310 316 318 312 308 312 318 320 316 316 319 318 314 314 318 319 318 314 308
194 210 221 234 238 236 243 254 262 272 284 291 299 306 304 300 297 290 283 275 261 249 237 227 222 223 220 216 211 207 208 220 233 235 235 240 247 255 261 265 268 271 271 272 274 278 285 292 295 300 307 309 307 308 311 312 312 314 315 316 316 316 312 308 305 306 307 312 314 308 301 307 316 318 314 315 316 314 314 316 316 315 315 315 311
149 158 153 153 187 201 211 226 243 263 283 297 310 317 317 312 305 292 277 262 247 238 231 224 223 222 218 213 210 210 218 228 232 235 239 245 252 257 259 262 264 266 265 265 268 272 279 286 289 293 298 299 299 300 302 302 304 304 305 307 307 307 306 304 303 303 304 308 312 306 299 306 316 314 310 311 312 309 310 313 313 313 315 318 318
192 214 222 252 273 250 226 231 249 265 285 305 316 326 334 335 327 299 262 243 234 232 227 220 217 213 212 213 215 220 228 226 225 232 240 246 251 254 255 257 257 255 253 254 258 262 266 272 278 284 288 290 293 296 297 299 300 302 303 302 302 303 304 302 300 299 300 303 306 303 301 306 309 306 306 311 315 311 308 307 308 312 315 321 328
232 253 263 258 255 257 248 243 250 259 269 289 309 325 337 340 334 290 235 219 211 206 196 191 195 195 196 208 214 210 213 217 220 230 236 239 244 246 246 246 243 239 239 244 252 257 261 267 273 279 283 287 290 292 295 297 298 302 305 304 304 306 304 299 295 295 296 297 298 298 296 296 300 306 311 319 325 322 318 315 314 319 329 341 349
269 285 291 275 257 253 251 246 245 247 251 263 289 309 320 316 279 205 184 176 170 167 163 162 171 178 183 196 209 215 223 230 236 245 247 242 237 233 232 232 234 241 250 259 267 271 274 277 280 282 285 288 290 292 295 297 297 299 301 303 306 307 301 293 292 295 296 296 298 297 291 290 299 309 313 316 317 316 319 324 334 341 345 353 357
286 305 315 300 266 248 244 243 243 241 241 241 250 266 265 247 232 214 196 184 172 171 178 183 187 196 207 219 226 230 236 241 245 252 251 241 232 229 235 250 265 277 284 290 293 294 294 294 295 296 296 297 299 302 305 307 308 308 305 305 306 304 297 292 293 297 297 298 305 304 295 295 301 304 305 308 312 312 309 306 321 331 325 323 327